{"data":{"norad_id":66357,"intl_designator":"2025-254K","name":"STARLINK-35817","alt_names":[],"object_type":"PAYLOAD","status":"ACTIVE","operator":null,"country":"US","launch_date":"2025-11-06","launch_site_code":"AFWTR","launch_vehicle":null,"mission":null,"orbit_class":"UNKNOWN","rcs_meters":null,"size_class":null,"mass_kg":null,"dimensions":null,"purposes":["comms"],"wikipedia_slug":null,"has_3d_model":false,"image_url":null,"decayed_at":null,"tle_current":{"epoch":"2026-09-20T21:51:00.022752Z","epoch_age_seconds":57975,"freshness":"FRESH","line1":"1 66357U 25254K   26263.91041693  .00008526  00000+0  26312-3 0  9994","line2":"2 66357  53.1603  43.6317 0001111  83.1539 276.9590 15.34407643 48898","mean_motion":15.34407643,"eccentricity":0.0001111,"inclination_deg":53.1603,"raan_deg":43.6317,"arg_perigee_deg":83.1539,"mean_anomaly_deg":276.959,"bstar":0.00026312,"rev_number":4889,"period_min":93.847290618586,"perigee_km":461.92050886783,"apogee_km":463.44053852159,"semimajor_km":6840.8175236947,"source":"CELESTRAK","updated_at":"2026-09-21T09:00:35.880949Z"}}}